Location: Copeville
(33.0796°N, 96.4155°W)
Time: 12:50:58
(UTC+00:00)

SEEDS - Pass Details

Date: 09 April 2023
Orbit: 568 x 587 km, 97.7° (Epoch: 29 May)

Event Time Altitude Azimuth Distance (km) Brightness Sun altitude
Rises 10:02:32 0° 17° (NNE) 2,825 ? -24.8°
Reaches altitude 10° 10:04:45 10° 21° (NNE) 1,918 ? -24.4°
Maximum altitude 10:08:50 55° 100° (E) 704 ? -23.6°
Enters shadow 10:10:09 37° 157° (SSE) 907 ? -23.3°
